Orbital Elements at Epoch 2459200.5 (2020-Dec-17.0) TDB
Reference: JPL 14 (heliocentric ecliptic J2000)
Element | Value | Uncertainty (1-sigma) | Units |
e | .05680656448820116 | 5.5163e-08 | |
a | 2.749098325050087 | 2.399e-08 | au |
q | 2.592931493763724 | 1.578e-07 | au |
i | 3.796333803527572 | 6.5543e-06 | deg |
node | 5.356337840237673 | 6.2826e-05 | deg |
peri | 22.92925798154712 | 7.7198e-05 | deg |
M | 223.1601979785829 | 4.5902e-05 | deg |
tp | 2459833.339783251971 (2022-Sep-10.83978325) | 0.00021469 | TDB |
period | 1664.883452075243 4.56 | 2.1793e-05 5.967e-08 | d yr |
n | .2162313521413571 | 2.8304e-09 | deg/d |
Q | 2.905265156336451 | 2.5353e-08 | au |
|
| | Orbit Determination Parameters
Additional Information
|